Helicity
148 135 141 112 98 97 102 113 126 131 139 169 167 154 152 142 107 69 63 42 29 20 21 23 35 45 47 42 46 38 34 25
145 136 150 149 83 133 132 129 141 143 134 143 151 145 153 139 124 99 88 67 40 34 34 27 26 33 44 51 52 48 47 42
146 157 174 175 147 144 142 137 141 119 105 119 96 90 99 104 114 145 152 182 70 43 43 43 37 31 39 44 56 91 83 63
115 138 171 184 173 129 131 117 96 56 70 58 26 43 53 67 86 107 123 154 160 109 71 50 46 63 78 71 93 89 101 90
127 150 167 199 161 127 110 100 53 45 65 37 -1 -10 -4 1 8 25 46 80 48 69 90 102 94 63 49 67 99 98 116 113
149 166 189 204 144 140 114 98 42 48 44 48 -4 -15 -1 -3 -2 9 25 43 58 61 50 94 133 111 84 55 61 106 99 100
164 163 174 179 150 130 123 74 50 51 69 75 41 24 30 12 10 16 33 59 73 60 62 64 86 116 105 114 69 53 76 112
128 139 131 138 116 110 78 55 45 74 89 89 103 69 49 28 16 30 41 48 48 41 51 64 70 80 83 102 68 61 45 69
150 129 118 130 119 85 68 54 60 68 74 113 83 62 45 22 4 1 0 -6 31 40 50 72 87 106 108 83 106 67 46 50
145 125 113 116 84 69 67 76 72 73 98 113 134 113 85 32 15 9 19 32 57 59 65 94 112 115 95 127 118 110 62 60
135 106 110 91 74 79 95 117 122 125 140 145 160 132 110 64 28 32 68 70 82 108 115 120 100 94 77 78 109 136 99 57
115 86 90 86 98 85 107 133 131 124 97 78 77 44 69 42 31 45 28 42 65 85 109 122 137 126 89 77 70 87 91 83
132 116 120 121 117 118 126 114 81 63 69 77 73 58 46 54 24 10 44 63 76 92 105 122 148 168 147 96 78 72 78 66
130 86 107 125 104 103 75 67 42 35 44 54 57 63 59 62 51 43 54 67 88 101 123 131 129 143 169 166 85 94 91 75
146 121 127 115 103 66 40 22 34 59 65 29 14 16 18 23 39 32 57 70 70 85 99 123 135 145 156 186 181 175 146 144
164 123 109 67 52 52 52 24 18 17 -2 -25 -40 -33 -23 -6 -9 12 35 49 67 73 85 88 93 113 133 148 130 141 122 28
153 83 91 69 62 68 56 44 14 -3 -10 -14 -34 -52 -44 -14 -11 5 24 35 58 82 113 107 91 89 93 109 159 134 94 79
203 108 83 75 69 73 72 53 24 7 4 -2 -20 -52 -61 -29 -14 4 29 53 63 79 101 113 97 83 82 102 99 125 134 101
162 164 94 81 72 77 62 49 23 3 4 4 6 -19 -46 -55 -51 -36 1 44 60 73 86 113 101 84 84 63 45 55 58 58
160 203 161 114 86 72 52 46 34 26 23 7 -6 -14 -27 -56 -77 -68 -65 -39 2 37 62 77 86 99 101 93 63 35 13 50
Wind_Speed
34 37 39 40 43 45 48 49 52 54 54 57 57 56 55 53 54 54 57 59 51 39 36 35 36 32 29 30 30 31 37 30
35 39 41 44 43 48 50 52 55 55 56 58 58 58 59 58 58 57 60 62 62 42 35 30 31 32 32 22 38 37 37 35
37 40 44 46 46 49 51 53 58 57 58 60 58 58 58 59 60 62 62 63 61 61 58 42 33 27 28 30 28 40 38 40
39 42 45 46 49 51 53 54 58 57 59 59 58 58 60 61 62 62 63 64 65 66 68 66 42 37 41 33 32 34 36 36
42 44 46 49 50 52 54 55 54 60 60 59 60 60 61 62 63 64 65 65 67 69 69 66 55 36 29 28 30 26 35 35
43 46 49 51 51 53 55 56 57 60 62 62 64 64 65 64 63 65 66 68 71 70 69 71 68 60 55 39 33 33 27 38
45 47 50 53 54 56 56 56 60 63 65 65 67 68 67 66 67 68 68 68 68 72 74 75 74 72 64 61 59 48 38 35
44 47 50 54 55 57 57 58 61 63 64 68 68 66 69 69 70 69 70 73 76 77 78 78 77 74 74 65 63 65 58 45
46 48 54 56 57 57 59 59 63 64 67 68 68 70 69 70 71 72 74 77 80 78 79 77 77 76 78 72 63 62 65 60
47 49 55 56 56 58 59 62 64 67 68 68 70 70 73 72 75 78 80 79 76 77 79 79 79 77 80 80 79 73 69 70
51 53 55 55 57 57 61 63 65 66 65 68 69 73 76 76 77 77 80 79 78 79 78 79 84 85 86 85 84 83 75 73
49 52 56 57 58 58 60 63 64 63 66 67 73 74 77 78 76 78 78 78 78 78 81 79 82 83 86 88 85 84 81 78
51 53 58 59 61 63 64 65 64 66 67 72 74 75 77 77 78 79 78 80 81 80 81 83 79 78 84 86 81 85 85 83
49 51 56 58 59 61 60 62 62 64 68 71 73 75 76 77 78 80 81 80 80 79 78 81 77 73 77 86 84 75 73 73
46 48 53 56 57 57 57 56 59 65 70 71 74 75 75 76 79 80 80 77 77 78 78 78 82 74 70 68 73 70 81 61
44 46 50 51 53 55 57 59 63 66 67 70 73 74 75 78 78 79 77 76 77 77 75 76 76 79 74 69 75 80 77 88
43 42 46 48 52 54 56 58 59 61 65 69 72 74 75 78 77 77 76 74 74 75 75 74 71 73 72 71 73 75 78 85
42 42 44 46 49 53 56 57 59 62 66 68 71 73 75 79 77 77 74 73 72 70 69 68 68 68 69 68 69 72 75 77
39 43 43 45 48 52 53 54 58 60 64 66 68 71 75 79 79 78 76 74 70 67 65 65 66 65 66 68 69 69 71 80
36 39 44 45 46 49 50 52 55 59 61 63 64 67 70 75 78 77 76 74 69 66 63 62 63 61 63 64 64 66 70 74
Wind_Direction
350 348 346 347 352 353 353 352 351 350 350 345 340 335 330 326 319 312 307 300 310 321 321 321 320 322 325 326 327 326 323 330
348 345 342 343 348 346 348 350 346 343 344 341 338 331 324 318 316 315 307 300 298 316 318 318 317 316 316 318 313 315 315 318
345 342 338 338 342 343 345 347 340 339 337 337 338 334 326 321 315 309 306 305 305 304 305 312 311 307 306 308 309 307 308 308
344 342 339 337 336 339 340 342 340 339 337 336 336 332 326 318 312 310 306 303 302 300 297 300 309 307 304 299 299 301 302 302
339 338 336 334 334 337 337 338 341 335 332 333 332 329 324 321 316 311 309 306 303 298 299 304 313 315 301 287 289 280 293 295
337 337 334 333 334 335 334 335 335 331 328 327 326 325 323 322 322 319 315 311 306 306 306 304 304 308 308 303 293 285 272 288
332 333 332 331 330 330 330 331 332 329 326 327 325 323 322 322 319 318 318 318 317 311 307 304 303 303 304 302 299 296 290 282
331 332 332 329 329 329 329 330 331 330 330 327 327 327 323 322 320 320 319 317 313 310 307 305 303 303 301 300 297 294 291 284
329 330 330 327 327 328 328 330 330 331 329 329 329 327 326 324 322 320 319 318 314 312 309 307 304 302 298 300 300 295 290 288
331 332 330 329 330 329 330 330 330 329 329 329 330 328 327 324 321 319 318 317 316 313 310 307 304 302 298 296 294 293 290 285
328 331 331 332 332 332 332 332 331 331 333 332 332 329 326 324 322 321 320 317 315 312 309 307 302 299 296 295 292 290 290 285
330 331 332 332 332 334 334 334 334 336 334 333 331 329 328 326 324 322 320 318 315 313 309 307 304 302 299 294 293 290 286 284
331 331 331 331 331 331 332 332 335 335 336 335 332 331 330 327 324 322 322 317 314 312 309 306 305 305 301 298 293 290 286 282
332 333 334 335 336 335 335 336 338 338 337 336 336 334 332 329 326 324 321 318 315 313 311 307 305 305 300 301 294 294 289 284
337 339 338 339 340 340 340 341 341 340 340 339 337 336 334 332 329 325 323 320 316 314 311 308 304 305 302 297 297 291 296 291
343 344 343 343 345 344 344 343 341 342 343 342 342 341 339 336 332 329 325 322 318 315 313 309 306 302 301 296 289 290 290 286
348 350 348 347 348 347 346 345 346 346 346 346 346 345 344 341 338 334 331 327 322 317 314 312 309 304 301 298 296 291 287 284
348 350 349 349 349 349 348 347 347 347 347 348 349 349 348 347 346 343 339 333 329 325 323 319 315 310 306 303 297 290 288 284
351 351 353 352 353 351 351 350 350 350 350 350 351 352 353 351 350 349 347 341 337 332 328 323 320 316 312 304 298 294 290 284
360 355 352 353 355 355 356 356 354 355 355 354 355 355 356 357 356 355 352 348 343 342 337 331 330 323 318 312 306 299 292 289